Temp
-22 -22 -22 -22 -22 -21 -20 -18 -17 -17 -16 -15 -14 -13 -13 -13 -12 -11 -11 -10 -9 -9 -9 -9 -8 -8 -8 -8 -8 -7 -7 -7 -6 -6 -5 -5 -5 -5 -4 -4 -3 -2 -2 -2 -2 -1 -1 -1 -2 -2 -1 -1 -2 -2 -2 -1 -1 -1 -1 -1 -1 -0 -0 -0 1 1 1 1 1 2 2 2 2 2
-22 -22 -22 -22 -22 -22 -21 -19 -18 -18 -17 -15 -14 -14 -13 -13 -12 -12 -11 -10 -9 -10 -10 -9 -9 -8 -8 -8 -8 -7 -7 -7 -7 -6 -6 -6 -5 -5 -5 -4 -4 -3 -2 -2 -2 -2 -1 -1 -2 -2 -2 -2 -2 -2 -2 -2 -1 -1 -1 -1 -1 -1 -1 -1 -0 0 0 0 1 1 2 2 2 2
-22 -22 -22 -22 -22 -22 -21 -20 -19 -19 -18 -16 -15 -14 -13 -13 -12 -12 -11 -11 -10 -10 -10 -10 -9 -9 -8 -8 -8 -8 -7 -7 -7 -7 -6 -6 -6 -6 -6 -5 -4 -3 -3 -2 -2 -2 -2 -1 -1 -2 -2 -2 -2 -2 -2 -2 -1 -1 -1 -1 -1 -1 -1 -1 -1 -0 -0 -0 0 1 1 1 1 1
-22 -22 -22 -22 -21 -21 -21 -20 -20 -19 -18 -17 -15 -14 -13 -13 -12 -12 -12 -11 -11 -10 -10 -10 -10 -9 -9 -8 -8 -8 -8 -8 -7 -7 -7 -7 -7 -6 -6 -5 -5 -4 -3 -3 -2 -2 -2 -1 -1 -1 -2 -3 -2 -1 -1 -2 -1 -1 -1 -1 -1 -1 -1 -1 -2 -1 -1 -1 -0 0 1 1 1 1
-22 -21 -21 -21 -21 -21 -20 -20 -19 -19 -18 -17 -16 -15 -14 -13 -12 -12 -12 -12 -11 -10 -10 -10 -10 -9 -9 -8 -8 -8 -8 -8 -8 -7 -7 -7 -7 -6 -6 -6 -5 -5 -4 -4 -3 -3 -2 -2 -1 -1 -1 -3 -3 -2 -1 -2 -2 -1 -1 -1 -1 -1 -1 -1 -2 -1 -1 -1 -1 -0 0 1 1 1
-21 -21 -21 -20 -20 -20 -20 -19 -19 -18 -18 -17 -16 -15 -14 -13 -13 -12 -12 -12 -11 -10 -10 -10 -10 -10 -9 -9 -8 -8 -8 -8 -8 -8 -7 -7 -7 -7 -7 -6 -6 -5 -5 -4 -4 -4 -3 -2 -1 -1 -1 -2 -3 -2 -2 -2 -2 -1 -1 -1 -1 -1 -1 -2 -2 -2 -2 -1 -1 -1 -0 0 0 0
-21 -20 -20 -20 -20 -20 -20 -19 -18 -17 -17 -17 -16 -15 -14 -13 -13 -13 -13 -12 -12 -11 -11 -11 -10 -10 -9 -9 -9 -9 -8 -8 -8 -8 -7 -7 -7 -7 -7 -7 -6 -6 -6 -5 -5 -4 -4 -3 -2 -1 -1 -2 -2 -2 -2 -2 -2 -2 -2 -1 -1 -1 -2 -2 -2 -2 -2 -2 -1 -1 -1 -0 -0 -0
-20 -20 -20 -20 -20 -20 -19 -18 -17 -17 -16 -16 -16 -15 -15 -14 -13 -13 -13 -13 -12 -11 -11 -11 -10 -10 -10 -9 -9 -9 -9 -9 -8 -8 -8 -7 -7 -7 -7 -7 -7 -7 -6 -6 -6 -5 -5 -4 -3 -2 -2 -2 -2 -2 -2 -2 -2 -2 -2 -2 -2 -2 -2 -2 -2 -2 -2 -2 -1 -1 -1 -1 -1 -0
-20 -20 -20 -20 -20 -20 -19 -18 -17 -16 -16 -16 -16 -15 -15 -14 -14 -13 -13 -13 -12 -12 -11 -11 -10 -10 -10 -10 -9 -9 -9 -9 -9 -8 -8 -8 -7 -7 -7 -7 -7 -7 -7 -7 -7 -6 -6 -5 -4 -3 -3 -2 -2 -2 -2 -2 -2 -2 -2 -2 -2 -2 -2 -2 -2 -2 -2 -2 -2 -1 -1 -1 -1 -1
-20 -20 -20 -20 -19 -19 -19 -18 -17 -16 -16 -16 -16 -15 -14 -14 -14 -13 -13 -13 -12 -12 -11 -11 -10 -10 -10 -10 -10 -10 -9 -9 -9 -8 -8 -8 -8 -7 -7 -7 -7 -7 -7 -7 -7 -7 -7 -6 -5 -5 -4 -3 -2 -2 -2 -2 -2 -3 -2 -2 -2 -2 -2 -3 -2 -2 -2 -2 -2 -2 -2 -1 -1 -1
-20 -20 -20 -20 -19 -19 -19 -18 -17 -16 -16 -16 -15 -15 -14 -14 -14 -13 -13 -13 -12 -12 -11 -11 -10 -10 -10 -10 -10 -10 -10 -9 -9 -9 -8 -8 -8 -7 -7 -8 -7 -7 -7 -7 -7 -7 -7 -7 -6 -6 -5 -4 -3 -3 -2 -3 -3 -3 -3 -3 -2 -2 -2 -2 -2 -2 -2 -2 -2 -2 -2 -2 -2 -2
-20 -20 -20 -20 -19 -19 -18 -18 -17 -17 -16 -15 -15 -14 -14 -14 -14 -13 -13 -12 -12 -12 -11 -11 -10 -10 -10 -10 -10 -10 -10 -9 -9 -9 -9 -8 -8 -8 -8 -8 -8 -7 -7 -7 -7 -7 -7 -7 -7 -7 -6 -6 -5 -4 -4 -3 -3 -3 -3 -3 -3 -2 -2 -2 -2 -2 -2 -2 -2 -2 -2 -2 -2 -2
-20 -20 -20 -20 -19 -19 -19 -18 -18 -17 -16 -15 -15 -15 -15 -14 -14 -13 -13 -12 -12 -12 -11 -11 -10 -10 -10 -10 -10 -10 -10 -9 -9 -9 -9 -9 -8 -8 -8 -8 -8 -8 -7 -7 -7 -7 -7 -7 -7 -7 -7 -6 -6 -5 -5 -4 -4 -4 -3 -3 -3 -3 -2 -2 -2 -2 -2 -2 -2 -2 -2 -2 -2 -2
-20 -20 -20 -19 -19 -19 -19 -18 -18 -18 -17 -16 -15 -15 -15 -15 -14 -14 -13 -13 -12 -12 -11 -11 -11 -10 -10 -10 -10 -10 -10 -10 -10 -9 -9 -9 -9 -8 -8 -8 -8 -8 -8 -7 -7 -7 -7 -7 -7 -7 -7 -7 -6 -6 -6 -6 -5 -5 -4 -4 -4 -4 -4 -3 -2 -2 -2 -2 -2 -2 -3 -3 -2 -2
-20 -20 -20 -19 -19 -19 -19 -18 -18 -18 -17 -17 -16 -15 -15 -14 -14 -14 -13 -13 -12 -12 -12 -11 -11 -11 -10 -10 -10 -10 -10 -10 -10 -9 -9 -9 -9 -9 -8 -8 -8 -8 -7 -7 -7 -7 -7 -7 -7 -7 -7 -7 -7 -6 -6 -6 -6 -6 -6 -5 -6 -6 -5 -4 -4 -3 -3 -3 -2 -2 -3 -3 -3 -2
-21 -20 -20 -19 -19 -18 -18 -18 -18 -17 -17 -17 -16 -16 -15 -14 -14 -14 -13 -13 -13 -12 -12 -12 -11 -11 -11 -11 -10 -10 -10 -10 -10 -10 -10 -9 -9 -9 -8 -8 -8 -8 -8 -8 -8 -7 -7 -7 -7 -7 -7 -7 -7 -7 -7 -6 -6 -6 -6 -6 -6 -6 -6 -5 -5 -4 -4 -3 -3 -2 -3 -3 -3 -3
-21 -20 -20 -20 -19 -18 -18 -18 -18 -17 -17 -17 -16 -16 -15 -15 -14 -14 -13 -13 -13 -12 -12 -12 -11 -11 -11 -11 -11 -11 -10 -10 -10 -10 -10 -9 -9 -9 -9 -9 -8 -8 -8 -8 -8 -8 -7 -7 -7 -7 -7 -7 -7 -7 -7 -7 -7 -6 -6 -6 -6 -6 -6 -5 -5 -5 -5 -4 -4 -3 -3 -3 -3 -3
-21 -21 -20 -20 -19 -18 -18 -18 -18 -17 -17 -17 -16 -16 -15 -15 -15 -14 -14 -14 -13 -13 -12 -12 -11 -11 -11 -11 -11 -11 -10 -10 -10 -10 -10 -10 -9 -9 -9 -9 -9 -8 -8 -8 -8 -8 -8 -7 -7 -7 -7 -7 -6 -6 -7 -7 -7 -7 -6 -6 -6 -6 -6 -6 -5 -5 -5 -5 -5 -5 -4 -4 -4 -4
-22 -21 -21 -20 -19 -19 -18 -18 -17 -17 -17 -17 -16 -16 -15 -15 -15 -15 -14 -14 -14 -13 -13 -12 -12 -12 -11 -11 -11 -11 -11 -11 -10 -10 -10 -10 -9 -9 -9 -9 -9 -9 -8 -8 -8 -8 -8 -8 -7 -7 -7 -7 -7 -7 -6 -6 -6 -7 -7 -6 -6 -6 -6 -6 -5 -5 -5 -5 -5 -5 -5 -4 -4 -4
-23 -22 -21 -20 -20 -19 -18 -18 -17 -17 -17 -17 -16 -16 -15 -15 -15 -15 -15 -14 -14 -14 -13 -13 -13 -12 -12 -12 -11 -11 -11 -11 -11 -10 -10 -10 -10 -9 -9 -9 -9 -9 -9 -8 -8 -8 -8 -8 -8 -8 -7 -7 -7 -7 -7 -7 -7 -7 -7 -6 -6 -6 -6 -6 -6 -5 -5 -5 -5 -5 -5 -5 -5 -5
-23 -22 -22 -21 -20 -19 -19 -18 -17 -17 -17 -17 -16 -16 -16 -15 -15 -15 -15 -15 -14 -14 -14 -13 -13 -13 -12 -12 -12 -11 -11 -11 -11 -11 -10 -10 -10 -10 -9 -9 -9 -9 -8 -8 -8 -8 -8 -8 -8 -8 -8 -7 -7 -7 -7 -7 -7 -7 -7 -7 -7 -6 -6 -6 -6 -6 -5 -5 -5 -5 -5 -5 -5 -5
-23 -22 -22 -21 -20 -20 -19 -18 -18 -17 -17 -17 -16 -16 -16 -15 -15 -15 -15 -15 -15 -15 -14 -14 -13 -13 -13 -12 -12 -12 -12 -11 -11 -11 -11 -11 -10 -10 -10 -10 -9 -9 -9 -9 -8 -8 -8 -8 -8 -8 -8 -8 -8 -7 -7 -7 -7 -7 -7 -7 -7 -7 -6 -6 -6 -6 -6 -5 -5 -5 -5 -5 -5 -5
-23 -23 -22 -21 -21 -20 -20 -19 -18 -17 -17 -16 -16 -16 -16 -15 -15 -15 -15 -15 -15 -15 -15 -14 -14 -13 -13 -13 -12 -12 -12 -12 -11 -11 -11 -11 -11 -11 -10 -10 -10 -10 -9 -9 -9 -9 -8 -8 -8 -8 -8 -8 -8 -7 -7 -7 -7 -7 -7 -7 -7 -7 -6 -6 -6 -6 -6 -6 -6 -5 -5 -5 -5 -5
-23 -23 -22 -21 -21 -21 -20 -19 -18 -18 -17 -17 -16 -16 -16 -15 -15 -15 -15 -15 -15 -15 -15 -15 -14 -14 -13 -13 -13 -12 -12 -12 -12 -11 -11 -11 -11 -11 -11 -10 -10 -10 -10 -10 -9 -9 -9 -9 -8 -8 -8 -8 -8 -8 -7 -7 -7 -7 -7 -7 -7 -7 -7 -6 -6 -6 -6 -6 -6 -6 -6 -6 -5 -5
-24 -23 -22 -22 -21 -21 -20 -20 -19 -18 -17 -17 -17 -16 -16 -16 -16 -15 -15 -15 -15 -15 -15 -15 -15 -14 -14 -13 -13 -13 -12 -12 -12 -12 -11 -11 -11 -11 -11 -11 -10 -10 -10 -10 -10 -10 -9 -9 -9 -9 -8 -8 -8 -8 -8 -8 -7 -7 -7 -7 -7 -7 -7 -6 -6 -6 -6 -6 -6 -6 -6 -6 -5 -5
-24 -24 -23 -22 -22 -21 -21 -20 -19 -18 -18 -17 -17 -16 -16 -16 -16 -16 -16 -16 -15 -15 -15 -15 -15 -14 -14 -13 -13 -13 -13 -12 -12 -12 -12 -11 -11 -11 -11 -11 -11 -11 -11 -10 -10 -10 -10 -9 -9 -9 -9 -8 -8 -8 -8 -8 -8 -7 -7 -7 -7 -7 -7 -7 -7 -6 -6 -6 -6 -6 -6 -5 -5 -5
-24 -24 -24 -23 -23 -22 -21 -21 -20 -19 -18 -18 -17 -17 -16 -16 -16 -16 -16 -16 -15 -15 -15 -15 -14 -14 -14 -14 -13 -13 -13 -12 -12 -12 -12 -12 -12 -11 -11 -11 -11 -11 -11 -11 -11 -10 -10 -10 -10 -9 -9 -9 -8 -8 -8 -8 -8 -8 -7 -7 -7 -7 -7 -7 -7 -7 -7 -6 -6 -6 -6 -6 -6 -5
-25 -25 -24 -24 -23 -23 -22 -21 -21 -20 -19 -18 -18 -17 -17 -17 -16 -16 -16 -16 -16 -15 -15 -14 -14 -14 -14 -13 -13 -13 -13 -12 -12 -12 -12 -12 -12 -11 -11 -11 -11 -11 -11 -11 -11 -11 -10 -10 -10 -10 -9 -9 -9 -9 -8 -8 -8 -8 -8 -8 -7 -7 -7 -7 -7 -7 -7 -7 -7 -7 -7 -6 -6 -6
-25 -25 -24 -24 -24 -23 -22 -22 -21 -20 -20 -19 -19 -18 -18 -17 -17 -16 -16 -16 -16 -15 -15 -14 -14 -14 -14 -13 -13 -13 -13 -13 -12 -12 -12 -12 -12 -12 -12 -11 -11 -11 -11 -11 -11 -11 -11 -11 -11 -10 -10 -10 -9 -9 -9 -9 -9 -8 -8 -8 -8 -7 -7 -7 -7 -7 -7 -7 -7 -7 -7 -6 -6 -6
-25 -25 -24 -24 -24 -23 -23 -22 -22 -21 -21 -20 -19 -19 -18 -18 -17 -17 -16 -16 -16 -16 -15 -15 -14 -14 -14 -13 -13 -13 -13 -13 -13 -13 -12 -12 -12 -12 -12 -12 -11 -11 -11 -11 -11 -11 -11 -11 -11 -11 -10 -10 -10 -10 -9 -9 -9 -9 -8 -8 -8 -8 -8 -7 -7 -7 -7 -7 -7 -7 -7 -7 -7 -7
-25 -25 -24 -24 -24 -23 -23 -23 -22 -22 -21 -21 -20 -19 -19 -19 -18 -18 -17 -17 -16 -16 -16 -15 -15 -14 -14 -14 -13 -13 -13 -13 -13 -13 -13 -13 -12 -12 -12 -12 -12 -11 -11 -12 -12 -12 -12 -12 -11 -11 -11 -11 -10 -10 -10 -10 -9 -9 -9 -9 -8 -8 -8 -8 -8 -7 -7 -7 -7 -7 -7 -7 -7 -7
-25 -25 -24 -24 -23 -23 -23 -23 -22 -22 -21 -21 -20 -20 -20 -19 -19 -19 -18 -18 -17 -17 -16 -16 -16 -15 -15 -14 -14 -14 -13 -13 -13 -13 -13 -13 -13 -13 -12 -12 -12 -12 -12 -12 -12 -12 -12 -12 -12 -11 -11 -11 -11 -11 -11 -10 -10 -10 -10 -9 -9 -9 -9 -8 -8 -8 -8 -8 -7 -7 -7 -7 -7 -7
-25 -25 -24 -23 -23 -23 -23 -23 -22 -22 -22 -21 -21 -21 -20 -20 -20 -19 -19 -18 -18 -17 -17 -17 -16 -16 -15 -15 -15 -14 -14 -14 -14 -14 -14 -14 -14 -14 -13 -12 -12 -12 -12 -12 -12 -12 -12 -12 -12 -12 -12 -11 -11 -11 -11 -11 -10 -10 -10 -10 -10 -10 -9 -9 -9 -9 -8 -8 -8 -8 -7 -7 -7 -7
-25 -24 -24 -23 -23 -23 -23 -23 -22 -22 -22 -22 -21 -21 -21 -20 -20 -20 -19 -19 -18 -18 -18 -17 -17 -16 -16 -16 -15 -15 -15 -15 -14 -15 -15 -15 -15 -15 -14 -14 -14 -13 -13 -13 -12 -12 -12 -12 -12 -12 -12 -11 -11 -11 -11 -11 -11 -11 -11 -10 -10 -10 -10 -10 -10 -9 -9 -9 -8 -8 -8 -8 -7 -7
-25 -24 -24 -24 -23 -23 -23 -23 -23 -23 -22 -22 -22 -21 -21 -21 -20 -20 -19 -19 -19 -19 -19 -18 -18 -17 -17 -16 -16 -16 -15 -15 -15 -15 -15 -15 -15 -15 -15 -15 -15 -15 -14 -14 -13 -13 -13 -13 -12 -12 -12 -12 -12 -11 -11 -11 -11 -11 -11 -11 -11 -11 -10 -10 -10 -10 -10 -9 -9 -9 -8 -8 -8 -8
-25 -24 -24 -24 -23 -23 -23 -23 -23 -23 -23 -22 -22 -22 -22 -21 -21 -20 -20 -19 -19 -19 -19 -19 -19 -19 -18 -18 -18 -17 -17 -16 -15 -15 -15 -15 -15 -16 -16 -16 -16 -15 -15 -15 -14 -14 -14 -13 -13 -12 -12 -12 -12 -12 -11 -11 -11 -11 -11 -11 -11 -11 -11 -11 -11 -10 -10 -10 -10 -9 -9 -9 -9 -9
-25 -24 -24 -24 -24 -23 -23 -23 -23 -23 -23 -23 -23 -22 -22 -22 -21 -21 -21 -21 -20 -20 -20 -20 -19 -19 -19 -19 -19 -19 -18 -17 -16 -15 -15 -15 -15 -15 -16 -16 -16 -15 -15 -14 -14 -14 -14 -13 -13 -13 -12 -12 -12 -12 -12 -12 -12 -12 -11 -11 -11 -11 -11 -11 -11 -10 -10 -10 -10 -10 -10 -10 -10 -10
-25 -25 -24 -24 -24 -24 -24 -23 -23 -23 -23 -23 -23 -23 -22 -22 -22 -22 -22 -21 -21 -20 -20 -20 -20 -19 -19 -19 -19 -19 -19 -19 -18 -17 -16 -15 -15 -15 -16 -16 -16 -15 -15 -14 -14 -14 -14 -13 -13 -13 -13 -12 -12 -12 -12 -12 -12 -12 -12 -12 -11 -11 -11 -11 -11 -11 -11 -10 -10 -10 -10 -10 -10 -10
-25 -25 -25 -24 -24 -24 -24 -24 -23 -23 -23 -23 -23 -23 -23 -23 -22 -22 -22 -22 -21 -21 -21 -20 -20 -20 -19 -19 -19 -19 -19 -19 -19 -18 -18 -17 -16 -16 -16 -16 -16 -15 -15 -15 -14 -14 -14 -13 -13 -13 -13 -13 -13 -13 -13 -12 -12 -12 -12 -12 -12 -12 -12 -11 -11 -11 -11 -11 -11 -11 -11 -11 -11 -11
-25 -25 -25 -25 -25 -24 -24 -24 -24 -24 -23 -23 -23 -23 -23 -23 -23 -22 -22 -22 -22 -21 -21 -21 -20 -20 -20 -19 -19 -19 -19 -19 -19 -19 -19 -18 -18 -17 -17 -16 -16 -15 -15 -15 -15 -15 -14 -14 -14 -14 -13 -13 -13 -13 -13 -13 -13 -13 -13 -12 -12 -12 -12 -12 -12 -12 -11 -11 -12 -12 -11 -11 -11 -11
-25 -25 -25 -25 -25 -25 -24 -24 -24 -24 -24 -23 -23 -23 -23 -23 -23 -22 -22 -22 -22 -22 -22 -21 -21 -20 -20 -20 -20 -20 -20 -19 -19 -19 -19 -19 -18 -18 -17 -17 -16 -16 -15 -15 -15 -15 -15 -15 -14 -14 -14 -14 -13 -13 -13 -13 -13 -13 -13 -13 -13 -12 -12 -12 -12 -12 -12 -12 -12 -12 -12 -12 -12 -11
-25 -25 -25 -25 -25 -25 -25 -24 -24 -24 -24 -24 -23 -23 -23 -23 -23 -23 -23 -22 -22 -22 -22 -22 -21 -21 -20 -20 -20 -20 -19 -19 -19 -19 -19 -19 -19 -18 -18 -17 -17 -16 -16 -16 -16 -16 -16 -15 -15 -15 -14 -14 -14 -14 -14 -13 -13 -13 -13 -13 -13 -13 -13 -12 -12 -12 -12 -12 -12 -12 -12 -12 -12 -12
-25 -25 -25 -25 -24 -25 -25 -25 -24 -24 -24 -24 -24 -23 -23 -23 -23 -23 -23 -22 -22 -22 -22 -22 -22 -21 -21 -21 -20 -20 -19 -19 -19 -19 -19 -19 -19 -19 -18 -18 -18 -17 -17 -17 -16 -16 -16 -16 -16 -15 -15 -15 -14 -14 -14 -13 -13 -13 -13 -13 -13 -13 -13 -13 -13 -13 -13 -13 -12 -12 -12 -12 -12 -11
-25 -25 -25 -25 -25 -24 -24 -24 -24 -24 -24 -24 -24 -24 -23 -23 -23 -23 -23 -22 -22 -22 -22 -22 -22 -22 -21 -21 -21 -20 -20 -19 -19 -19 -19 -19 -19 -19 -19 -18 -18 -18 -17 -17 -17 -16 -16 -16 -16 -16 -16 -15 -15 -14 -14 -14 -14 -14 -13 -13 -14 -14 -14 -14 -14 -13 -13 -13 -13 -12 -12 -12 -12 -12
-24 -24 -24 -24 -25 -25 -24 -24 -24 -24 -24 -24 -24 -24 -24 -23 -23 -23 -23 -23 -22 -22 -22 -22 -22 -22 -22 -21 -21 -21 -20 -20 -19 -19 -19 -18 -18 -18 -18 -18 -18 -18 -17 -17 -17 -17 -16 -16 -16 -16 -16 -16 -15 -15 -15 -15 -14 -14 -14 -14 -14 -14 -14 -14 -14 -14 -14 -13 -13 -13 -13 -13 -13 -12
Height
2807 2805 2803 2802 2800 2799 2799 2800 2801 2803 2806 2810 2813 2817 2820 2821 2822 2823 2825 2827 2830 2833 2835 2837 2839 2841 2843 2846 2849 2852 2855 2858 2861 2863 2866 2869 2871 2874 2876 2879 2883 2887 2892 2897 2903 2908 2914 2920 2926 2932 2936 2941 2947 2952 2954 2957 2961 2965 2970 2976 2980 2984 2987 2990 2993 2996 2999 3003 3006 3009 3013 3017 3021 3024
2803 2800 2799 2798 2797 2796 2795 2794 2795 2797 2800 2804 2807 2811 2815 2817 2818 2819 2820 2822 2826 2829 2831 2832 2834 2837 2839 2841 2844 2847 2850 2854 2856 2858 2861 2864 2867 2869 2872 2874 2877 2881 2886 2890 2896 2902 2909 2915 2921 2927 2931 2935 2942 2948 2951 2953 2957 2962 2966 2971 2976 2980 2983 2985 2989 2993 2995 2998 3001 3005 3009 3012 3016 3020
2798 2797 2796 2795 2793 2792 2790 2790 2790 2792 2794 2797 2801 2805 2809 2812 2814 2815 2816 2817 2821 2825 2827 2829 2830 2833 2835 2837 2840 2843 2846 2849 2852 2854 2857 2860 2863 2865 2867 2869 2872 2875 2879 2884 2889 2895 2902 2909 2916 2922 2926 2930 2936 2943 2947 2949 2952 2957 2962 2968 2972 2975 2979 2982 2985 2989 2992 2994 2997 3000 3004 3007 3012 3016
2794 2793 2792 2791 2790 2788 2787 2787 2787 2787 2789 2792 2796 2800 2803 2807 2809 2811 2812 2813 2817 2821 2823 2825 2827 2828 2831 2833 2836 2839 2842 2845 2847 2850 2853 2856 2858 2860 2862 2865 2868 2870 2874 2878 2883 2889 2896 2902 2908 2916 2921 2925 2930 2937 2942 2945 2947 2952 2957 2962 2967 2971 2975 2979 2981 2985 2988 2990 2992 2995 2999 3003 3007 3011
2791 2790 2788 2787 2786 2785 2784 2784 2784 2784 2785 2788 2791 2795 2798 2802 2805 2807 2809 2810 2813 2817 2820 2821 2823 2825 2827 2829 2832 2835 2838 2841 2843 2846 2850 2853 2855 2857 2859 2861 2864 2866 2869 2873 2877 2883 2890 2895 2901 2909 2916 2920 2924 2931 2937 2940 2942 2946 2950 2955 2960 2966 2971 2975 2978 2982 2984 2987 2989 2992 2996 3000 3003 3007
2788 2786 2784 2783 2782 2781 2781 2781 2781 2781 2782 2784 2787 2791 2794 2798 2801 2804 2806 2807 2809 2814 2816 2817 2819 2821 2823 2825 2828 2831 2834 2837 2840 2843 2846 2849 2852 2854 2855 2857 2860 2863 2865 2869 2873 2877 2883 2889 2895 2902 2909 2915 2919 2924 2930 2935 2939 2942 2946 2951 2955 2961 2965 2969 2974 2977 2981 2984 2987 2989 2993 2996 3000 3003
2785 2783 2781 2780 2779 2778 2778 2778 2777 2778 2779 2781 2783 2787 2790 2794 2797 2800 2802 2803 2806 2810 2813 2814 2816 2817 2819 2822 2824 2827 2830 2833 2836 2839 2842 2845 2848 2851 2852 2854 2857 2860 2862 2865 2869 2873 2878 2883 2889 2894 2901 2908 2915 2918 2922 2929 2934 2937 2941 2947 2952 2957 2960 2964 2968 2973 2977 2980 2984 2987 2990 2993 2997 3000
2782 2781 2779 2777 2776 2775 2775 2775 2775 2776 2777 2778 2780 2784 2787 2789 2793 2795 2798 2800 2803 2807 2810 2812 2813 2814 2816 2818 2821 2824 2827 2829 2832 2836 2839 2841 2844 2847 2849 2851 2854 2857 2859 2862 2865 2869 2874 2878 2883 2889 2894 2901 2909 2914 2917 2922 2928 2932 2936 2941 2947 2952 2955 2959 2964 2968 2972 2977 2981 2984 2987 2990 2994 2997
2780 2779 2777 2775 2774 2773 2773 2773 2774 2774 2775 2776 2778 2781 2784 2785 2788 2791 2794 2797 2800 2804 2807 2809 2811 2812 2813 2815 2817 2820 2823 2826 2829 2832 2835 2838 2841 2843 2846 2848 2851 2854 2856 2859 2862 2866 2870 2874 2878 2883 2888 2894 2902 2908 2912 2917 2922 2927 2932 2936 2941 2946 2949 2953 2958 2964 2968 2973 2978 2981 2984 2987 2991 2994
2778 2777 2775 2774 2773 2772 2772 2771 2771 2771 2772 2774 2776 2779 2781 2782 2785 2789 2792 2795 2798 2801 2804 2806 2808 2809 2810 2812 2814 2817 2820 2823 2825 2828 2831 2834 2837 2840 2843 2845 2848 2851 2854 2857 2860 2863 2866 2870 2874 2878 2883 2888 2894 2900 2906 2911 2916 2922 2927 2931 2935 2941 2945 2948 2953 2959 2964 2968 2973 2978 2981 2984 2987 2990
2777 2776 2774 2773 2772 2770 2770 2769 2770 2770 2771 2772 2774 2777 2778 2780 2783 2786 2790 2793 2796 2799 2801 2803 2805 2807 2808 2809 2811 2814 2817 2820 2822 2825 2828 2831 2834 2837 2840 2843 2845 2848 2852 2855 2858 2861 2864 2867 2871 2875 2878 2883 2888 2893 2898 2904 2910 2917 2922 2926 2930 2935 2940 2944 2948 2954 2959 2963 2967 2973 2977 2981 2984 2986
2775 2774 2773 2772 2771 2769 2769 2769 2769 2769 2769 2770 2772 2774 2776 2777 2780 2784 2787 2790 2793 2796 2798 2800 2802 2804 2805 2807 2809 2811 2814 2816 2818 2821 2824 2827 2831 2834 2837 2840 2843 2846 2849 2852 2855 2858 2861 2864 2868 2872 2875 2879 2883 2888 2892 2898 2904 2910 2916 2921 2925 2929 2935 2940 2944 2949 2954 2959 2962 2968 2973 2977 2980 2983
2773 2772 2771 2771 2769 2769 2768 2768 2768 2767 2767 2768 2771 2772 2774 2776 2778 2781 2784 2787 2790 2793 2795 2798 2800 2802 2803 2804 2806 2808 2810 2813 2816 2818 2821 2824 2827 2830 2834 2837 2840 2843 2846 2849 2852 2855 2858 2862 2865 2869 2872 2876 2880 2884 2888 2893 2898 2904 2910 2915 2919 2923 2929 2934 2939 2943 2949 2954 2958 2963 2969 2973 2976 2979
2772 2770 2769 2769 2768 2768 2768 2767 2767 2766 2766 2768 2769 2771 2772 2774 2776 2778 2781 2783 2786 2790 2793 2795 2797 2799 2801 2802 2804 2806 2808 2810 2813 2816 2819 2821 2824 2827 2830 2834 2837 2840 2843 2846 2849 2852 2856 2859 2863 2867 2871 2875 2878 2882 2885 2890 2895 2900 2905 2910 2915 2919 2923 2928 2933 2938 2943 2948 2952 2957 2963 2968 2972 2976
2770 2769 2768 2767 2767 2767 2767 2766 2766 2765 2766 2767 2768 2769 2770 2772 2774 2776 2778 2780 2783 2787 2790 2792 2795 2797 2798 2800 2802 2804 2806 2808 2811 2813 2816 2819 2821 2824 2827 2831 2834 2837 2840 2843 2846 2850 2853 2857 2861 2865 2868 2872 2876 2880 2884 2888 2893 2897 2902 2907 2912 2917 2920 2924 2928 2933 2938 2943 2947 2952 2957 2962 2966 2971
2768 2767 2767 2766 2766 2766 2765 2765 2765 2765 2765 2766 2767 2768 2769 2771 2773 2775 2777 2779 2781 2784 2787 2789 2792 2794 2796 2798 2800 2802 2804 2806 2808 2811 2813 2816 2819 2821 2824 2828 2832 2835 2838 2841 2844 2847 2851 2854 2858 2862 2865 2869 2873 2877 2882 2886 2890 2895 2900 2905 2910 2914 2918 2921 2924 2928 2932 2937 2941 2946 2951 2957 2961 2965
2767 2765 2765 2765 2764 2764 2764 2763 2764 2764 2765 2765 2766 2767 2768 2770 2772 2774 2776 2777 2779 2781 2784 2787 2789 2791 2793 2795 2797 2799 2802 2804 2806 2808 2811 2814 2817 2819 2822 2826 2829 2832 2835 2839 2842 2845 2849 2852 2855 2859 2863 2866 2870 2874 2878 2882 2887 2892 2897 2902 2907 2911 2915 2918 2921 2924 2927 2932 2936 2940 2945 2951 2955 2959
2767 2764 2762 2762 2762 2762 2762 2762 2763 2763 2764 2764 2765 2766 2767 2769 2771 2772 2774 2776 2778 2780 2782 2785 2787 2789 2791 2793 2795 2797 2800 2802 2804 2806 2809 2812 2815 2818 2821 2824 2827 2830 2833 2836 2839 2843 2847 2850 2853 2856 2860 2863 2867 2871 2874 2878 2883 2888 2893 2898 2902 2906 2910 2914 2917 2920 2923 2928 2932 2936 2940 2945 2949 2953
2769 2765 2762 2760 2760 2760 2760 2761 2762 2762 2763 2763 2763 2764 2766 2768 2770 2771 2773 2775 2777 2779 2781 2783 2785 2787 2790 2792 2794 2796 2798 2800 2803 2805 2807 2810 2813 2816 2819 2821 2825 2828 2831 2834 2837 2840 2844 2847 2850 2854 2857 2860 2864 2867 2871 2875 2879 2883 2888 2893 2898 2902 2906 2910 2913 2917 2920 2924 2928 2932 2936 2940 2944 2948
2771 2767 2763 2760 2759 2758 2758 2759 2760 2761 2762 2762 2763 2764 2765 2767 2768 2770 2772 2773 2775 2777 2779 2781 2783 2785 2788 2790 2792 2795 2797 2799 2801 2803 2806 2808 2810 2813 2816 2819 2822 2825 2828 2831 2834 2837 2841 2844 2847 2851 2854 2857 2861 2864 2868 2871 2875 2879 2884 2888 2893 2898 2902 2906 2909 2913 2917 2921 2925 2929 2933 2936 2940 2943
2773 2769 2765 2761 2759 2757 2757 2757 2758 2760 2761 2762 2762 2763 2764 2765 2767 2769 2770 2772 2774 2776 2777 2779 2781 2783 2786 2788 2790 2792 2795 2797 2799 2802 2804 2806 2809 2811 2814 2817 2820 2823 2826 2829 2832 2835 2839 2842 2845 2848 2851 2854 2858 2862 2865 2868 2872 2876 2880 2884 2889 2893 2898 2902 2906 2909 2913 2918 2922 2925 2929 2933 2936 2939
2775 2771 2767 2763 2759 2757 2757 2756 2757 2758 2759 2760 2761 2762 2764 2765 2766 2768 2770 2771 2773 2775 2776 2778 2780 2781 2784 2786 2788 2790 2792 2794 2797 2799 2802 2804 2807 2809 2812 2814 2817 2820 2823 2827 2830 2833 2836 2839 2842 2845 2848 2851 2855 2858 2862 2866 2869 2873 2877 2881 2885 2889 2893 2897 2901 2905 2909 2913 2917 2921 2925 2928 2932 2935
2776 2772 2769 2764 2761 2758 2757 2756 2756 2757 2758 2759 2760 2761 2762 2763 2765 2767 2769 2770 2772 2773 2775 2776 2778 2780 2782 2784 2786 2788 2790 2792 2795 2797 2800 2802 2805 2807 2810 2812 2815 2818 2821 2824 2827 2830 2833 2836 2839 2842 2845 2848 2851 2855 2859 2862 2866 2870 2874 2878 2882 2886 2889 2893 2897 2900 2904 2908 2912 2916 2920 2924 2927 2930
2776 2772 2769 2765 2762 2759 2757 2756 2756 2756 2757 2758 2759 2760 2761 2762 2763 2765 2767 2769 2770 2772 2773 2775 2776 2778 2780 2783 2785 2787 2789 2791 2793 2796 2798 2800 2802 2805 2808 2810 2813 2816 2818 2821 2824 2827 2830 2833 2836 2839 2842 2846 2849 2852 2855 2859 2863 2867 2870 2874 2878 2882 2885 2889 2892 2896 2899 2903 2907 2911 2915 2919 2922 2926
2776 2772 2769 2765 2762 2760 2759 2757 2756 2756 2757 2757 2758 2759 2760 2761 2762 2763 2764 2766 2768 2770 2771 2773 2774 2776 2778 2780 2783 2785 2787 2789 2791 2794 2796 2798 2800 2802 2805 2808 2810 2813 2816 2818 2821 2823 2826 2830 2832 2836 2839 2842 2846 2849 2853 2856 2859 2863 2867 2870 2874 2878 2881 2884 2888 2891 2894 2898 2902 2905 2909 2913 2917 2921
2777 2774 2771 2767 2764 2762 2760 2759 2757 2757 2757 2757 2758 2758 2759 2760 2761 2761 2762 2764 2765 2767 2770 2771 2773 2774 2776 2779 2781 2783 2786 2788 2790 2792 2794 2797 2799 2801 2803 2805 2808 2811 2813 2815 2818 2820 2823 2826 2829 2832 2835 2839 2842 2846 2849 2852 2856 2859 2863 2866 2869 2873 2876 2879 2882 2886 2889 2893 2897 2900 2904 2907 2912 2916
2779 2776 2773 2769 2767 2765 2762 2760 2759 2757 2757 2757 2757 2757 2758 2758 2759 2760 2761 2762 2763 2765 2767 2769 2771 2773 2775 2777 2779 2782 2784 2786 2788 2791 2793 2795 2797 2800 2802 2804 2806 2809 2811 2813 2815 2818 2820 2823 2826 2829 2832 2835 2838 2841 2845 2848 2851 2855 2858 2862 2865 2868 2871 2874 2877 2880 2884 2887 2891 2895 2898 2902 2906 2910
2782 2778 2775 2773 2771 2768 2765 2762 2760 2759 2757 2756 2756 2756 2757 2757 2758 2759 2760 2761 2762 2764 2766 2768 2770 2772 2774 2776 2778 2780 2782 2784 2787 2789 2791 2793 2795 2798 2800 2802 2805 2807 2809 2811 2813 2816 2818 2821 2823 2826 2828 2831 2834 2837 2840 2843 2847 2850 2853 2856 2860 2863 2866 2869 2872 2875 2878 2882 2885 2889 2893 2896 2900 2904
2784 2782 2780 2777 2775 2772 2768 2765 2762 2760 2758 2757 2756 2756 2756 2756 2757 2758 2759 2760 2761 2762 2764 2766 2768 2771 2773 2775 2777 2778 2780 2782 2785 2787 2789 2791 2793 2795 2798 2800 2802 2805 2806 2808 2811 2813 2816 2818 2820 2823 2825 2827 2830 2833 2836 2839 2842 2845 2848 2851 2855 2858 2861 2864 2867 2870 2873 2877 2880 2884 2888 2892 2895 2898
2788 2786 2784 2781 2777 2773 2769 2766 2764 2761 2759 2758 2758 2757 2756 2756 2756 2757 2758 2759 2760 2761 2763 2764 2766 2768 2770 2773 2775 2777 2778 2780 2782 2785 2787 2789 2791 2793 2795 2797 2800 2803 2804 2806 2808 2811 2813 2816 2818 2820 2822 2824 2827 2830 2832 2835 2837 2840 2843 2846 2849 2852 2855 2859 2862 2865 2869 2872 2876 2880 2883 2886 2890 2893
2790 2788 2786 2783 2779 2775 2772 2769 2767 2765 2763 2761 2759 2758 2756 2756 2756 2756 2757 2758 2759 2760 2761 2762 2764 2766 2768 2770 2772 2774 2776 2777 2780 2782 2784 2786 2788 2790 2792 2794 2797 2800 2802 2803 2805 2808 2810 2813 2815 2817 2820 2822 2824 2827 2829 2831 2834 2836 2839 2842 2845 2848 2851 2854 2857 2861 2864 2868 2871 2874 2877 2881 2884 2888
2791 2789 2788 2785 2783 2780 2777 2774 2771 2768 2765 2763 2760 2759 2758 2757 2757 2757 2757 2757 2758 2759 2760 2761 2762 2764 2765 2767 2769 2771 2772 2774 2776 2778 2780 2782 2784 2786 2789 2791 2793 2795 2798 2801 2803 2805 2807 2810 2812 2815 2817 2819 2821 2824 2826 2828 2831 2833 2836 2838 2841 2844 2847 2850 2853 2857 2860 2862 2865 2869 2872 2876 2879 2883
2792 2791 2789 2787 2785 2782 2779 2776 2773 2770 2767 2765 2762 2761 2759 2758 2758 2758 2758 2757 2758 2758 2759 2759 2761 2762 2763 2765 2766 2767 2769 2770 2772 2774 2776 2778 2780 2782 2784 2787 2789 2791 2794 2796 2799 2801 2804 2807 2809 2812 2814 2816 2819 2821 2823 2825 2828 2830 2833 2835 2838 2841 2843 2846 2849 2852 2855 2857 2860 2863 2867 2870 2874 2878
2793 2792 2790 2787 2785 2782 2780 2777 2774 2771 2769 2767 2764 2763 2761 2760 2759 2759 2758 2758 2758 2758 2758 2759 2759 2760 2761 2762 2764 2765 2766 2767 2769 2771 2772 2774 2776 2778 2780 2783 2786 2788 2790 2792 2795 2798 2800 2803 2806 2808 2811 2813 2815 2818 2820 2822 2825 2828 2830 2832 2835 2837 2840 2842 2845 2848 2850 2853 2856 2859 2862 2865 2869 2872
2794 2792 2790 2787 2785 2782 2780 2778 2775 2773 2771 2769 2766 2765 2763 2762 2760 2760 2759 2758 2758 2758 2758 2758 2758 2759 2759 2760 2761 2762 2763 2765 2766 2767 2769 2770 2772 2774 2777 2779 2782 2785 2787 2788 2791 2794 2796 2800 2802 2805 2807 2809 2812 2814 2816 2819 2821 2824 2826 2829 2831 2833 2836 2838 2841 2843 2846 2849 2851 2854 2857 2860 2863 2867
2794 2792 2790 2788 2785 2783 2781 2779 2777 2775 2773 2770 2768 2767 2765 2763 2762 2761 2760 2759 2759 2759 2758 2758 2758 2758 2758 2759 2760 2760 2761 2762 2763 2764 2766 2767 2769 2771 2773 2775 2778 2781 2784 2786 2789 2791 2793 2796 2799 2801 2803 2806 2808 2810 2813 2815 2818 2820 2823 2825 2828 2830 2832 2835 2837 2839 2842 2845 2847 2850 2853 2856 2859 2862
2794 2792 2790 2788 2786 2784 2782 2780 2778 2776 2774 2772 2770 2768 2767 2765 2763 2762 2761 2760 2760 2760 2759 2759 2759 2758 2758 2758 2759 2759 2759 2760 2761 2761 2763 2764 2766 2768 2769 2771 2774 2778 2782 2784 2787 2788 2790 2792 2795 2798 2800 2802 2804 2807 2810 2812 2814 2817 2819 2821 2824 2826 2828 2831 2833 2836 2838 2841 2844 2847 2850 2853 2856 2859
2794 2792 2790 2788 2786 2784 2783 2781 2779 2778 2776 2774 2772 2771 2769 2767 2766 2764 2763 2762 2761 2760 2760 2759 2759 2759 2759 2758 2758 2758 2759 2759 2759 2760 2761 2761 2763 2765 2766 2768 2771 2776 2779 2781 2784 2786 2788 2790 2792 2795 2797 2799 2801 2803 2806 2808 2811 2813 2816 2818 2820 2823 2825 2827 2830 2832 2835 2838 2841 2844 2846 2849 2852 2855
2794 2792 2790 2788 2786 2785 2783 2782 2780 2778 2777 2775 2774 2772 2771 2769 2768 2767 2765 2764 2762 2761 2760 2760 2759 2759 2758 2758 2758 2758 2758 2759 2759 2759 2760 2760 2761 2762 2764 2766 2769 2773 2776 2778 2780 2783 2785 2787 2789 2791 2793 2795 2797 2800 2802 2805 2807 2810 2812 2814 2816 2819 2821 2823 2826 2829 2831 2834 2837 2839 2842 2844 2847 2850
2795 2792 2790 2788 2787 2785 2783 2782 2780 2779 2777 2776 2775 2773 2772 2770 2769 2768 2766 2765 2763 2762 2761 2760 2759 2759 2758 2758 2758 2758 2758 2758 2758 2759 2759 2760 2760 2761 2762 2764 2767 2770 2773 2775 2777 2779 2781 2783 2785 2786 2788 2790 2792 2795 2797 2799 2802 2804 2807 2809 2811 2813 2815 2818 2821 2823 2826 2829 2832 2834 2837 2839 2842 2845
2795 2793 2791 2789 2787 2785 2784 2782 2781 2779 2778 2776 2775 2774 2772 2771 2770 2768 2767 2765 2764 2763 2762 2761 2760 2759 2758 2758 2757 2757 2757 2757 2757 2758 2758 2759 2760 2761 2761 2763 2765 2767 2770 2772 2774 2776 2778 2779 2781 2782 2784 2785 2787 2789 2791 2793 2796 2799 2802 2804 2806 2809 2811 2814 2816 2819 2822 2824 2826 2829 2831 2834 2836 2839
2796 2794 2791 2789 2787 2785 2784 2782 2781 2779 2778 2777 2775 2774 2773 2771 2770 2769 2767 2766 2765 2764 2763 2761 2760 2759 2758 2758 2757 2757 2756 2756 2756 2757 2757 2757 2758 2759 2760 2761 2763 2765 2767 2769 2771 2773 2775 2776 2778 2779 2781 2782 2784 2785 2787 2789 2792 2795 2798 2800 2802 2805 2807 2810 2812 2814 2817 2819 2821 2824 2827 2829 2831 2833
2797 2794 2792 2790 2788 2786 2784 2782 2781 2779 2778 2776 2775 2774 2773 2772 2771 2769 2768 2767 2765 2764 2763 2762 2761 2759 2758 2757 2757 2756 2756 2756 2755 2756 2756 2756 2757 2757 2758 2759 2761 2762 2764 2766 2768 2770 2772 2773 2775 2776 2777 2779 2781 2782 2784 2786 2788 2791 2794 2797 2799 2800 2802 2805 2807 2810 2812 2814 2817 2819 2822 2824 2826 2828
2797 2795 2792 2790 2788 2786 2784 2782 2780 2779 2777 2776 2774 2773 2772 2771 2770 2769 2768 2766 2765 2764 2763 2762 2761 2759 2758 2757 2756 2756 2755 2755 2754 2754 2754 2754 2755 2755 2756 2757 2758 2759 2761 2763 2765 2766 2768 2769 2771 2772 2774 2775 2777 2778 2780 2782 2783 2786 2789 2792 2794 2796 2798 2800 2802 2804 2806 2808 2811 2814 2816 2818 2821 2824
2797 2795 2793 2790 2788 2786 2784 2782 2780 2778 2777 2775 2774 2773 2772 2770 2769 2768 2767 2766 2765 2763 2762 2761 2760 2759 2758 2757 2756 2755 2754 2754 2753 2753 2753 2753 2753 2753 2754 2754 2755 2756 2757 2759 2761 2762 2764 2766 2767 2768 2769 2771 2773 2774 2776 2777 2779 2781 2784 2787 2790 2792 2794 2795 2797 2798 2800 2803 2806 2809 2812 2814 2817 2819
Wind_Speed
30 30 29 29 30 31 31 32 35 39 45 45 44 43 34 26 27 30 33 37 34 29 28 29 29 28 27 29 31 33 33 31 31 32 31 31 32 35 41 48 56 63 66 66 76 85 80 69 63 60 58 56 56 55 53 51 48 48 48 46 43 41 41 43 45 46 45 45 46 46 45 44 43 42
29 29 28 27 27 28 28 29 31 34 41 44 44 45 39 28 25 26 28 34 33 28 26 27 28 28 27 27 30 32 33 31 30 31 31 30 31 32 34 41 48 57 63 63 68 82 85 74 66 61 56 56 58 58 57 54 50 50 49 47 47 45 42 42 42 43 43 43 45 45 44 44 43 42
28 28 27 26 26 27 26 26 28 32 37 41 42 45 44 33 26 26 26 30 31 26 25 26 26 27 27 26 29 32 32 31 31 31 31 29 30 32 32 35 42 50 58 60 62 73 84 80 72 62 52 53 59 60 60 57 52 53 52 47 47 47 43 42 41 41 41 42 44 45 44 44 43 42
26 26 26 25 25 25 22 20 24 29 34 38 39 42 47 39 28 28 29 30 29 25 24 25 24 26 27 26 27 30 31 32 32 31 30 29 29 32 33 33 37 43 50 56 58 64 75 82 81 70 55 55 63 62 60 59 53 54 55 47 46 48 45 43 42 41 40 40 42 43 44 44 43 43
21 23 25 23 22 22 20 17 20 24 28 34 36 38 46 43 31 31 35 35 32 26 22 24 24 24 26 25 26 29 30 31 32 31 30 29 29 32 34 33 34 38 44 50 55 58 64 72 78 76 63 58 64 63 61 62 58 57 57 51 49 50 48 45 43 42 40 39 39 41 42 42 42 43
18 22 22 18 18 19 18 17 18 22 24 29 34 35 41 45 35 31 37 39 36 29 22 23 23 23 24 25 25 27 30 30 30 30 30 29 28 30 33 33 32 34 39 44 49 53 57 62 68 74 73 65 61 62 63 63 60 59 58 55 52 50 47 44 44 44 42 40 38 38 39 40 41 41
18 21 18 14 15 17 18 17 17 21 22 25 30 30 35 44 39 32 35 41 40 33 25 23 23 22 23 25 24 24 28 30 29 29 28 28 28 29 32 34 32 32 35 39 43 46 50 56 62 69 77 74 65 62 65 64 60 59 57 55 51 47 44 43 43 43 42 41 39 37 37 37 38 39
18 21 18 12 13 15 15 17 18 20 20 21 27 28 29 38 42 36 36 40 42 37 28 23 23 22 22 24 24 23 25 29 30 29 28 28 28 28 31 33 33 32 33 36 39 41 44 49 56 62 70 75 71 65 63 61 59 58 57 55 51 48 46 44 44 43 42 41 41 38 36 36 36 37
17 20 20 14 11 14 12 14 17 18 18 20 24 25 25 33 40 42 41 40 41 39 30 24 23 22 22 25 25 23 24 26 28 29 28 28 29 28 30 33 34 33 34 36 37 38 40 42 48 53 60 68 75 74 68 63 60 57 56 55 53 51 49 47 47 46 44 42 42 40 38 36 35 35
15 18 20 17 12 13 11 10 12 14 16 19 22 22 22 28 35 39 40 38 36 35 31 26 23 22 23 26 27 25 24 25 26 28 28 28 28 29 28 31 34 34 34 36 37 38 38 39 41 45 50 57 69 79 79 74 69 62 58 57 56 56 53 50 49 49 47 44 43 42 40 38 38 37
14 15 18 18 14 11 9 8 11 14 16 19 21 20 19 23 30 34 36 34 29 27 29 26 24 22 23 26 28 27 25 25 25 26 28 28 28 28 28 28 31 34 33 33 35 37 39 39 38 39 42 46 55 68 76 77 75 69 62 58 57 59 58 52 48 49 48 46 44 44 42 41 40 40
15 14 16 17 15 10 7 8 11 13 15 18 19 19 18 20 26 30 33 31 25 22 25 26 23 23 24 26 28 30 29 27 26 26 27 27 27 27 27 27 28 31 33 33 33 34 37 40 40 39 39 40 43 51 59 65 68 68 64 58 57 59 60 56 50 49 50 47 43 43 44 43 43 42
15 14 15 17 16 12 7 7 8 6 10 15 18 19 19 20 24 27 28 29 26 21 21 24 24 23 24 25 27 31 32 30 27 26 27 27 27 26 26 26 27 29 32 33 33 33 35 38 41 42 41 40 39 41 46 51 56 60 61 58 55 56 59 58 54 52 52 49 44 43 45 45 44 45
15 14 14 15 16 14 10 8 8 4 4 11 16 18 18 18 21 23 22 25 28 23 19 21 23 23 24 24 25 28 31 31 29 27 27 27 27 27 26 26 27 27 29 31 33 34 35 36 38 41 43 43 42 40 40 42 45 49 53 54 52 51 54 57 57 56 54 52 49 47 47 47 45 45
18 14 13 14 15 15 13 9 7 5 2 7 12 16 18 18 18 18 17 20 26 27 22 19 20 21 22 22 24 25 26 27 28 27 28 29 28 27 26 25 26 26 27 29 30 31 34 37 37 38 41 43 44 43 42 40 40 41 43 45 45 45 47 52 55 57 57 56 54 51 49 49 49 45
24 18 13 12 14 15 14 11 7 5 4 6 10 13 16 18 18 18 17 17 22 26 26 23 19 19 19 19 22 24 24 24 26 26 28 30 31 30 27 25 24 24 25 26 27 28 31 35 38 39 39 41 42 44 44 43 42 41 40 40 40 39 41 44 49 52 54 55 56 55 51 49 49 48
28 23 17 12 12 14 15 13 10 6 4 6 9 11 13 16 18 19 19 18 18 22 25 25 22 19 18 18 19 21 22 23 25 28 29 31 32 32 31 28 26 24 23 24 25 26 28 31 36 39 41 42 42 43 44 45 45 44 43 41 40 38 38 40 43 46 48 48 50 53 53 51 49 48
31 26 22 16 12 13 15 14 12 8 5 6 8 10 12 14 16 17 18 18 17 18 21 24 24 22 19 18 18 18 18 19 21 25 28 30 32 32 32 32 30 27 25 24 24 25 26 28 31 35 39 42 44 44 44 44 45 45 45 44 43 41 39 39 41 42 43 43 43 45 49 51 51 48
33 28 24 19 14 13 15 16 14 10 7 7 7 11 12 13 14 15 16 17 16 16 17 19 22 23 22 20 19 18 17 16 17 20 23 27 30 31 32 34 34 32 30 28 27 26 26 27 28 30 33 37 41 44 45 45 45 45 45 44 45 44 42 40 40 41 41 41 41 42 43 46 48 48
36 29 24 21 16 12 14 16 16 13 10 8 8 12 13 13 12 13 14 15 15 16 16 17 19 20 22 23 23 21 20 18 18 18 20 22 26 29 32 34 36 36 35 33 31 29 28 27 27 28 30 33 36 40 44 46 46 45 45 45 45 46 45 42 41 41 41 40 41 41 41 42 43 43
39 33 26 21 16 11 11 14 16 15 13 11 9 11 14 14 13 12 13 15 17 17 16 17 18 18 19 22 24 24 24 22 21 21 20 20 22 24 28 31 34 37 37 36 36 34 32 31 29 29 29 30 32 35 39 42 44 45 45 46 46 46 46 45 43 42 42 41 41 41 41 41 41 41
42 38 31 22 16 12 9 11 14 16 16 13 11 12 13 15 15 15 16 17 19 20 20 19 19 18 18 20 22 24 24 24 24 23 22 22 21 21 23 26 30 33 35 36 37 37 36 36 34 33 32 31 31 31 34 37 40 43 45 46 46 47 47 46 45 44 43 42 42 42 41 41 41 41
42 42 37 29 23 18 11 8 11 14 16 16 14 13 13 15 17 18 19 19 19 19 20 20 21 22 21 20 21 22 23 24 24 24 24 23 22 21 21 23 25 27 29 31 33 35 36 37 37 36 36 35 34 33 33 34 36 39 41 44 46 47 48 47 47 46 45 44 42 42 42 42 42 42
43 43 41 37 32 26 18 10 6 10 13 16 16 15 14 16 19 21 24 24 23 22 20 19 21 23 24 24 24 23 23 24 24 25 26 26 24 23 22 22 23 24 25 26 29 31 32 34 36 37 37 37 36 35 35 34 34 36 38 40 43 45 48 49 49 48 48 47 45 44 42 42 42 42
43 44 43 42 38 33 26 17 8 6 9 13 15 17 16 17 19 21 23 25 27 27 24 21 21 23 23 24 26 26 25 25 25 25 26 27 26 25 25 24 24 24 23 24 25 27 29 31 33 35 36 37 37 37 36 36 36 36 36 37 39 41 44 47 49 49 49 49 48 47 46 45 45 44
42 43 43 43 41 37 31 24 15 7 5 9 12 15 16 16 16 18 19 20 23 25 24 22 21 22 22 24 25 26 26 25 24 23 23 24 25 25 25 26 25 25 24 24 24 25 27 28 30 31 33 35 36 37 37 37 37 37 37 37 38 39 40 43 45 47 49 49 50 49 49 49 48 47
39 41 42 43 41 38 34 29 23 15 7 5 8 11 13 13 13 14 15 16 18 20 21 20 20 20 21 23 24 24 24 24 23 22 21 21 21 22 23 25 25 25 25 26 26 26 26 27 28 30 31 32 34 35 36 36 37 37 38 39 39 39 39 40 42 44 45 47 48 48 48 49 49 49
37 38 39 39 38 37 35 31 27 21 14 7 3 6 9 11 11 12 13 14 16 17 18 18 19 19 20 22 23 23 23 23 22 22 21 20 20 20 21 22 23 24 25 27 27 27 27 27 27 29 30 31 32 33 34 35 36 36 37 39 39 40 40 40 41 42 43 44 45 46 48 49 49 49
34 34 34 35 35 35 34 31 28 25 20 15 9 5 5 7 9 10 11 12 14 15 17 18 18 19 20 21 22 23 23 23 23 23 22 22 22 22 22 22 21 22 24 27 28 27 27 27 27 28 29 30 32 32 33 34 35 35 36 37 38 40 40 41 42 42 43 44 45 46 47 48 49 49
30 30 29 31 32 34 34 32 30 26 23 19 14 9 4 4 5 7 9 11 12 13 15 17 18 20 21 22 23 24 25 25 25 25 25 25 25 25 24 24 23 22 23 25 27 27 27 27 27 28 28 29 30 31 32 34 35 35 36 36 37 38 39 41 42 42 43 43 44 45 45 47 48 49
28 28 28 28 30 31 32 31 29 26 22 19 15 12 7 3 2 4 6 9 10 12 14 15 18 19 21 22 24 25 27 28 28 27 27 27 27 28 27 27 26 25 24 24 25 27 28 28 28 28 28 28 28 29 29 31 33 34 35 36 37 37 38 39 40 41 42 42 43 44 45 46 47 48
27 26 25 25 25 26 27 26 26 25 23 21 19 16 13 9 6 2 2 5 8 10 12 14 16 18 20 21 22 24 26 28 29 30 30 30 30 30 31 30 30 29 28 27 27 27 27 28 29 29 29 28 28 28 28 29 30 31 33 34 35 36 36 37 38 39 40 41 42 43 45 46 47 48
25 23 22 21 21 23 24 25 26 25 25 24 22 19 17 14 10 7 3 2 5 7 10 12 15 17 19 20 21 22 23 25 27 29 30 31 32 32 33 33 33 32 31 30 29 29 29 28 28 29 30 30 30 29 30 30 30 29 30 31 33 34 35 35 35 36 38 40 41 42 44 45 46 47
23 21 21 21 22 23 24 26 27 27 26 25 24 22 19 17 14 11 7 5 2 1 4 8 11 15 18 20 21 22 23 24 25 27 28 29 30 31 31 32 32 32 32 31 30 31 31 30 28 28 30 31 31 31 32 32 31 30 30 30 30 31 33 34 34 35 36 37 38 40 41 42 43 45
21 20 20 21 22 23 24 25 26 27 27 27 25 24 22 19 17 14 11 9 7 4 2 2 4 8 13 17 19 20 22 24 25 25 26 27 28 29 29 30 30 30 30 29 28 28 30 32 32 31 31 33 33 32 32 32 32 31 31 31 31 31 32 32 33 34 35 36 37 38 40 41 42 43
19 19 19 20 21 22 23 24 25 25 26 27 26 25 23 22 20 17 14 12 11 7 5 3 3 2 4 8 13 15 17 20 23 24 24 25 27 29 29 30 31 30 28 26 25 24 25 29 31 31 32 33 34 34 32 32 32 32 32 32 32 32 32 32 33 34 34 35 36 37 38 39 39 40
18 18 19 19 20 20 21 22 23 23 24 25 25 25 25 24 22 21 19 17 14 11 8 5 4 4 3 2 5 10 12 13 16 20 22 23 25 26 29 31 32 31 28 25 25 25 25 27 29 30 31 32 34 34 32 31 30 31 31 32 32 32 32 33 34 34 34 35 35 36 37 37 37 37
18 18 18 18 18 19 20 20 21 21 22 22 23 23 23 23 22 21 20 18 16 15 13 10 6 3 1 2 2 4 7 7 8 12 16 19 22 24 27 30 32 32 29 26 25 27 28 29 29 29 30 31 32 33 32 31 31 30 30 31 31 31 32 32 33 33 34 34 35 36 36 37 37 36
20 19 18 18 18 18 18 18 19 20 20 20 20 20 21 21 20 20 19 18 17 16 15 13 10 6 2 1 2 3 4 6 7 8 9 13 17 21 25 28 30 32 30 26 25 26 29 30 31 31 31 30 30 31 31 32 33 31 30 30 31 31 32 32 32 32 33 33 34 35 37 38 38 38
23 22 20 19 18 17 17 17 17 18 18 18 19 19 19 19 19 18 18 19 18 17 16 15 13 11 8 3 2 4 5 5 7 8 9 9 11 15 21 25 29 32 31 28 25 26 27 28 30 31 32 32 31 30 31 33 35 35 34 33 33 33 34 34 34 34 34 34 34 35 36 38 39 40
23 22 21 20 19 18 17 17 16 16 16 17 17 17 17 18 18 18 18 18 18 17 16 15 13 12 11 8 5 2 4 6 7 9 10 10 11 12 15 20 25 29 29 27 25 25 26 27 27 28 30 32 31 31 32 34 35 35 34 33 33 34 34 35 36 36 36 36 37 37 38 38 39 40
24 23 22 21 20 19 18 17 16 15 15 15 15 15 15 16 16 16 16 16 16 16 15 14 13 13 12 11 9 5 2 4 7 8 10 12 14 15 15 16 19 23 25 24 23 22 24 26 27 29 31 32 31 31 32 33 33 32 32 32 32 33 33 34 35 35 36 37 38 39 40 41 41 42
24 23 22 22 21 20 19 18 17 16 15 14 14 14 14 14 14 14 13 13 13 14 14 13 12 12 12 11 10 9 6 3 4 7 9 12 14 16 18 19 20 21 23 24 25 25 24 25 27 29 31 33 34 34 35 35 34 33 32 31 31 32 33 34 34 34 35 36 38 39 40 42 43 44
23 22 22 21 21 20 20 19 18 17 16 15 15 14 13 13 13 13 13 12 12 12 12 12 12 11 10 10 10 9 9 8 5 4 7 10 12 15 17 20 23 25 26 27 28 29 29 29 30 31 32 33 35 36 37 38 38 37 36 35 34 34 34 34 34 35 36 38 39 40 41 42 43 44
22 21 21 21 20 19 19 18 18 18 17 16 15 14 13 13 13 13 13 13 12 12 12 11 11 11 10 9 9 8 9 9 8 6 5 6 9 12 15 18 21 24 27 29 31 33 33 33 33 34 35 35 35 36 36 36 36 37 37 37 37 37 36 35 35 35 36 37 37 37 38 40 41 42
Wind_Direction
297 293 291 286 282 282 277 261 248 238 232 229 225 224 229 237 241 241 241 242 242 242 244 244 241 239 237 229 221 222 225 226 229 231 233 234 232 229 225 222 221 220 223 223 219 215 211 208 209 205 199 199 201 200 196 190 190 195 197 198 202 208 210 212 212 211 211 211 211 213 213 212 211 210
295 293 293 290 288 291 287 268 249 238 231 228 225 223 224 228 234 237 240 242 241 239 240 244 243 238 236 231 222 219 220 222 225 228 231 233 231 230 227 224 223 221 222 223 221 217 214 212 213 209 202 200 202 204 200 191 190 195 197 198 200 201 205 209 210 210 210 210 210 210 211 212 211 210
295 293 293 292 291 291 288 272 252 238 230 228 225 221 221 224 228 231 238 242 240 238 238 242 244 239 235 232 224 218 216 218 221 224 227 230 230 228 227 225 224 223 222 222 221 218 215 214 212 209 206 203 203 206 202 193 192 195 195 199 203 202 202 205 208 209 207 208 210 208 208 210 209 208
295 293 294 293 292 289 283 274 260 243 230 227 225 221 220 222 224 228 235 241 240 238 240 241 243 240 234 231 226 220 216 215 218 221 223 227 227 225 226 226 225 224 223 222 221 218 217 216 215 214 212 207 205 206 203 196 195 195 191 193 202 203 204 204 207 209 207 207 209 207 206 208 207 206
296 295 296 291 286 282 273 263 257 247 233 226 225 222 221 221 223 227 233 240 239 236 239 241 241 240 234 230 227 222 217 215 216 218 220 223 226 225 224 226 226 225 223 222 221 219 218 219 219 216 211 206 203 202 201 199 198 196 192 191 195 199 202 203 204 208 209 208 209 207 206 206 205 204
302 301 301 291 281 275 263 250 240 236 234 228 224 224 223 221 222 226 231 238 238 234 236 240 241 239 234 229 226 223 219 216 216 217 217 220 224 224 223 223 225 226 224 222 221 221 219 220 220 216 211 207 203 197 197 200 199 197 196 197 198 199 202 204 204 206 208 208 208 207 205 205 205 204
309 313 312 295 283 274 251 238 230 225 228 227 224 225 224 221 222 225 230 235 237 235 234 236 238 239 235 229 225 223 220 217 216 216 216 217 220 222 221 221 223 225 225 224 222 221 220 219 220 219 215 214 209 198 193 197 198 198 199 201 204 202 201 205 204 202 205 207 206 207 206 205 205 204
313 321 322 306 288 280 249 229 227 224 223 223 222 224 225 221 221 225 229 234 237 236 234 233 236 237 234 228 224 222 221 219 217 216 214 214 216 219 218 217 218 221 223 225 225 222 221 220 220 221 220 218 214 204 196 197 199 202 204 206 208 205 201 204 204 200 201 206 206 206 207 207 206 205
312 319 324 324 299 286 263 227 219 216 216 221 219 219 224 223 221 223 227 231 234 236 235 232 232 233 231 225 221 221 222 220 218 218 215 213 215 217 217 214 213 216 218 221 224 223 221 221 221 222 222 220 216 211 206 206 207 210 211 212 214 210 204 202 204 202 201 204 206 205 206 207 208 207
312 315 322 333 319 288 272 240 222 211 208 215 217 215 219 225 224 223 226 229 232 234 236 231 226 227 229 223 217 217 222 222 220 220 218 215 215 215 216 215 212 212 214 216 219 221 221 221 221 223 223 221 218 217 216 217 219 218 218 217 216 214 208 201 202 203 201 202 206 206 204 205 206 207
312 313 316 327 328 306 287 267 250 233 210 204 210 211 212 219 221 221 225 227 226 230 233 227 221 224 228 224 216 213 218 223 222 221 219 217 217 215 214 215 214 212 212 213 214 217 218 219 219 222 223 223 221 221 221 223 223 222 222 221 219 217 212 206 204 204 202 202 205 205 203 202 203 204
314 312 311 318 327 324 297 268 252 232 202 191 200 204 204 212 215 216 223 223 217 220 225 220 218 222 226 225 218 211 212 217 219 220 220 217 217 217 215 215 214 213 213 213 213 213 213 213 215 217 220 221 222 223 224 224 223 223 223 222 221 220 216 212 207 204 203 203 203 206 205 202 200 200
324 315 309 311 320 327 309 277 264 228 181 186 203 208 210 217 215 213 221 220 211 209 215 214 215 220 224 224 220 213 211 212 214 217 219 218 216 215 215 215 214 214 213 213 213 213 212 211 211 212 214 216 217 219 221 222 221 221 221 219 220 222 220 217 211 206 205 203 201 205 208 206 203 199
340 324 312 307 311 316 315 298 283 279 160 178 197 203 207 215 215 214 219 219 210 204 206 210 212 216 220 221 219 215 212 212 212 214 216 218 217 216 215 214 214 214 214 214 213 212 212 212 211 210 210 212 213 212 214 217 217 217 217 215 215 219 222 221 217 213 210 206 202 203 205 207 209 205
351 338 318 305 301 302 307 307 291 278 214 174 176 179 187 198 207 209 211 214 211 208 207 209 207 209 215 217 214 211 210 211 213 214 215 216 218 219 219 217 216 215 214 215 215 213 211 211 211 211 209 209 210 210 210 211 211 210 211 212 212 216 220 222 222 221 218 215 212 210 208 206 207 210
353 347 330 309 296 292 296 302 299 278 238 198 171 159 165 176 187 194 196 200 207 210 212 210 204 201 205 208 207 207 208 209 210 213 214 213 214 217 219 220 219 219 217 216 216 216 213 211 210 211 210 209 208 209 208 209 208 206 205 206 209 212 216 220 223 225 227 226 223 221 218 211 206 206
355 349 340 325 300 288 289 293 295 289 256 220 188 162 151 155 166 178 182 183 195 207 213 213 207 200 197 197 198 202 206 209 209 210 211 209 210 211 214 217 218 220 221 219 217 217 215 213 211 210 210 209 208 207 207 208 208 208 207 205 206 208 211 215 218 222 227 230 231 230 227 223 218 211
1 353 344 337 316 293 286 285 285 285 271 245 209 178 161 150 152 165 172 175 184 197 207 213 213 207 201 198 196 198 205 209 209 209 210 210 210 210 210 212 213 216 220 221 220 218 216 213 212 211 210 209 208 207 207 207 207 208 208 208 207 207 208 211 213 216 221 224 228 231 232 231 232 227
8 360 349 343 330 301 285 279 277 275 270 257 225 197 185 168 154 159 169 174 179 185 193 204 211 213 211 207 203 206 212 215 212 208 207 208 211 212 211 210 208 209 211 215 219 221 219 215 213 211 210 209 209 208 207 207 207 207 208 208 209 209 208 208 209 211 215 218 220 224 229 233 235 235
15 8 357 347 336 310 287 278 272 268 266 260 233 213 208 198 179 170 174 182 185 185 186 189 197 206 212 213 213 214 218 221 218 211 204 202 206 211 213 212 210 208 207 209 214 218 220 220 217 214 212 210 209 209 208 208 208 207 207 207 208 209 209 208 208 208 211 214 216 218 222 227 231 234
19 18 9 353 341 325 294 278 273 267 264 262 247 229 226 223 208 193 198 210 212 207 201 195 191 193 199 206 211 212 215 220 222 219 213 207 204 205 209 212 213 214 214 214 215 217 220 223 223 222 219 215 212 210 209 209 209 208 208 207 207 207 208 209 208 208 209 210 212 215 217 221 224 227
19 21 21 11 1 353 321 285 274 268 265 262 255 244 237 232 222 211 212 222 226 225 221 214 207 198 193 196 201 204 207 211 216 219 221 220 217 210 207 207 210 214 217 219 220 221 222 223 224 225 225 224 220 215 212 211 210 210 209 208 208 208 208 209 209 209 209 210 210 211 213 215 217 220
18 20 23 26 26 20 2 313 277 269 266 262 257 253 247 239 231 223 217 217 222 227 229 226 220 212 202 199 199 199 199 202 206 211 215 220 223 219 213 209 207 209 213 217 219 220 222 223 224 224 224 225 225 222 219 216 213 212 211 210 209 209 209 209 210 209 210 210 210 211 211 212 213 215
17 18 21 25 29 28 21 2 305 269 261 260 257 254 249 241 236 233 229 225 226 229 232 232 225 217 211 208 206 202 201 202 204 207 210 213 216 216 215 213 211 208 209 212 215 217 217 219 221 222 222 223 224 223 223 221 219 217 215 213 211 210 211 211 211 211 211 211 211 211 212 212 213 214
14 16 18 22 24 26 26 22 358 291 258 254 253 251 247 239 233 233 233 231 229 230 233 234 228 218 211 209 209 207 206 207 208 208 210 211 213 214 214 214 213 211 208 209 213 214 215 215 217 218 219 220 221 222 222 222 221 221 220 218 216 213 212 212 212 213 213 214 214 214 214 215 215 216
13 13 15 18 19 19 23 26 21 354 284 252 246 247 246 240 233 230 229 228 227 227 230 231 225 214 205 202 205 206 206 208 209 210 210 212 214 215 216 216 216 214 212 211 211 212 214 214 215 216 216 217 218 219 220 220 221 221 221 221 220 219 216 214 213 213 214 215 216 217 217 218 218 218
12 11 13 16 16 15 17 22 25 19 355 284 249 243 242 241 235 229 225 223 222 222 223 223 218 210 203 201 203 205 205 206 207 209 211 212 214 216 218 219 218 216 216 216 214 213 213 214 215 215 215 216 216 216 218 219 220 221 221 221 221 221 220 219 217 215 215 215 216 217 218 219 219 220
11 10 12 13 13 13 15 17 21 22 20 6 302 252 241 237 234 228 224 222 220 219 218 217 215 211 206 205 206 208 210 210 210 212 215 217 218 218 219 220 219 217 217 219 218 216 214 214 216 216 216 216 216 215 215 217 218 220 221 222 222 223 223 222 221 219 218 217 217 217 217 218 219 219
12 9 10 10 10 12 15 17 18 20 23 24 16 338 272 243 231 224 221 221 221 220 218 216 216 215 213 211 211 214 216 218 218 220 222 224 226 226 224 224 222 218 218 218 219 218 217 215 216 217 217 217 217 217 216 216 217 217 219 220 221 223 224 224 224 223 222 221 220 220 219 219 220 220
12 8 8 10 11 12 15 17 18 20 22 23 21 12 339 276 243 226 220 218 219 221 221 219 219 219 219 218 217 218 221 224 225 226 226 228 230 231 230 230 227 224 223 221 219 217 216 214 215 217 219 219 218 217 217 218 218 217 218 219 219 221 222 223 224 224 224 224 223 223 222 221 221 221
12 8 8 11 12 14 15 17 19 22 24 25 27 28 24 1 281 236 225 222 219 219 221 223 224 225 225 225 224 223 224 226 228 229 228 229 231 232 233 234 232 230 228 227 224 219 215 214 215 216 218 220 220 218 217 218 218 219 219 219 220 220 221 222 223 224 224 225 224 224 223 223 222 222
10 7 8 10 13 16 18 19 20 23 26 29 32 35 38 37 31 9 259 236 229 226 224 225 227 229 230 231 231 230 229 230 231 231 230 230 230 232 234 234 235 234 231 229 227 224 219 217 216 216 215 217 219 219 218 217 217 218 219 219 219 220 222 223 223 223 224 224 224 224 224 224 224 224
7 4 6 9 13 17 20 22 23 25 28 31 34 38 42 44 41 34 12 290 250 239 235 231 230 230 231 232 234 235 235 235 235 234 234 233 232 232 233 233 234 235 234 230 227 225 222 221 219 217 215 215 216 218 221 220 218 217 218 218 218 218 220 221 223 223 223 224 224 225 225 225 225 225
2 1 5 9 13 18 20 22 24 27 28 30 32 36 40 44 44 42 39 31 12 255 242 239 234 232 231 230 231 233 235 236 237 237 236 236 233 232 232 231 229 230 233 232 228 225 222 220 221 220 219 218 217 218 220 222 220 218 218 219 219 218 218 219 221 222 223 223 223 224 225 225 225 226
359 0 6 10 13 17 20 22 24 26 28 29 30 31 35 40 42 43 46 47 44 41 20 313 256 241 236 232 231 233 234 235 236 236 236 236 235 232 231 228 224 223 227 230 230 226 222 219 219 220 220 221 222 221 220 221 221 220 220 220 220 220 220 220 221 222 222 223 223 223 223 224 224 224
358 2 7 10 13 16 20 22 24 24 26 28 29 28 29 34 36 39 42 43 42 37 23 12 16 351 265 237 229 230 233 236 236 235 234 234 235 234 233 229 221 216 218 223 224 223 220 219 220 222 221 221 223 224 223 223 223 224 224 224 224 224 224 224 224 223 223 223 224 224 224 224 224 225
2 5 8 10 13 15 17 20 22 24 25 26 27 27 28 29 31 33 33 34 35 36 33 31 32 25 3 304 236 226 227 233 238 238 234 231 231 231 231 228 218 211 212 217 216 215 214 213 215 219 219 220 223 225 224 223 224 224 225 226 226 227 226 226 227 226 226 225 225 226 227 227 227 227
8 8 8 10 12 14 16 17 19 21 24 25 26 28 29 29 30 30 29 28 29 31 33 34 36 29 351 345 309 246 227 223 233 238 236 233 229 225 225 224 217 212 213 215 212 212 213 211 212 216 217 218 221 223 223 223 224 224 224 223 224 226 226 227 228 229 229 229 228 228 229 229 229 229
13 12 10 9 9 11 13 14 15 17 19 21 24 26 28 29 29 29 28 27 27 27 27 27 28 30 24 263 265 267 250 234 229 230 232 234 230 223 221 220 217 216 220 221 215 212 212 212 214 218 222 223 223 222 224 227 228 228 228 226 225 225 225 226 227 229 230 231 231 231 231 230 230 229
15 15 14 12 10 9 9 10 11 12 13 15 17 20 23 25 25 27 28 27 25 23 23 21 19 21 22 9 260 246 249 244 236 230 225 226 229 226 222 219 217 219 224 227 224 220 217 214 212 214 217 220 223 223 224 226 227 227 227 227 226 225 224 225 226 227 228 229 230 231 231 231 230 230
14 14 14 14 13 11 9 7 6 6 8 9 10 12 15 17 19 21 24 25 23 20 19 17 13 12 14 16 9 291 244 237 240 238 229 221 221 224 224 221 219 220 223 225 224 225 226 224 222 220 217 217 219 222 223 223 223 223 224 225 226 227 227 228 229 229 229 229 229 229 230 230 230 230
11 12 13 13 13 13 11 9 6 3 2 2 3 4 6 9 11 13 16 20 20 18 15 13 11 8 6 6 8 4 303 237 234 238 237 229 222 219 219 220 220 220 219 218 217 221 225 226 227 228 227 225 224 224 225 224 222 223 224 227 229 230 230 229 230 231 230 230 230 230 230 230 231 231
6 8 9 10 12 12 11 10 8 5 2 359 357 356 356 358 1 3 5 10 14 15 13 10 8 6 3 359 357 357 354 328 257 235 233 235 232 227 222 219 217 216 215 213 212 215 219 222 224 228 230 231 231 231 231 230 228 227 226 226 229 232 232 231 231 231 231 231 231 231 232 232 233 233
5 5 5 7 8 10 10 10 9 7 5 2 358 354 350 348 348 350 352 356 360 4 7 7 4 1 360 357 352 348 344 339 323 271 235 231 233 234 231 227 222 219 217 215 214 214 215 219 222 225 228 230 233 235 236 236 236 234 231 227 227 229 232 233 233 234 234 233 232 232 233 233 234 234
6 4 4 4 5 6 8 9 8 7 6 4 1 358 352 347 344 342 342 343 345 348 352 355 356 354 351 349 346 340 335 332 327 316 288 249 234 233 234 235 234 230 226 223 222 221 221 223 226 229 230 231 232 233 235 237 238 238 236 232 229 229 230 233 234 236 237 237 237 237 237 237 236 236